Погода в Исламе

Узбекистан     40°22′38″N   70°47′35″E
темп.,
°C
ветер,
м/с
пор.,
м/с
влажн.,
%
обл.,
%
осадки,
мм/ч
давл.,
гПа
погр.,
м
22 июня, вт
вт2223:00+27зюз1018160 0.0 1009627
02:00+25зюз815180 0.0 1009414
05:00+22зюз23240 0.0 101148
08:00+28св33180 0.0 1011683
11:00+32сз13150 0.0 10101451
14:00+37зюз57120 0.0 10073449
17:00+36зюз1011120 0.0 10053391
20:00+31зюз712180 0.0 1007346
23 июня, ср
ср2323:00+28зюз914220 0.0 1008396
02:00+25юз1016220 0.0 1008394
05:00+24зюз915245 0.0 1009459
08:00+27з77200 0.0 1011732
11:00+33з45130 0.0 10101636
14:00+35зюз76100 0.0 10081618
17:00+34юз1112110 0.0 1007982
20:00+30юз1017140 0.0 1007567
24 июня, чт
чт2423:00+27юз713180 0.0 1008293
02:00+25зюз610210 0.0 1008221
05:00+22зюз23260 0.0 100855
08:00+28з22180 0.0 1009495
11:00+34зюз44120 0.0 10071313
14:00+37зюз88110 0.0 10041712
17:00+36юз1414110 0.0 10031641
20:00+32юз11171379 0.0 1005661
25 июня, пт
пт2523:00+29юз815230 0.0 1006474
02:00+27юз713260 0.0 1005266
05:00+26юз713270 0.0 1006305
08:00+30зюз78210 0.0 1007666
11:00+34зюз77200 0.0 10051657
14:00+38юз1112140 0.0 10023107
17:00+37зюз1011120 0.0 10013067
20:00+32зюз1216200 0.0 1002624
26 июня, сб
сб2623:00+28зюз1016260 0.0 1003495
02:00+26юз1017230 0.0 1003501
05:00+24зюз813270 0.0 1005349
08:00+29з34205 0.0 1007749
11:00+33зюз23151 0.0 10051501
14:00+37зюз66104 0.0 10031819
17:00+36зюз910113 0.0 10021162
20:00+32зюз10161692 0.0 1002541